Hourly Data Report for November 21, 2019

OTTAWA INTL A
ONTARIO
Current Station Operator: NAVCAN

45°19'00.000" N
75°40'00.000" W
114.90 m
6106001
71628
YOW

Download Data

Hourly Data (November 2019)
Hourly Data Report for November 21, 2019
TIME Temp Definition
°C
Dew Point Definition
°C
Rel Hum Definition
%
Wind Dir Definition
10's deg

Wind Spd Definition
km/h
Visibility Definition
km
Stn Press Definition
kPa
Hmdx Definition


Wind Chill Definition


Weather Definition


00:00 -3.5 -4.0 97 36 2 24.1 100.82   -4 LegendNANA
01:00 -3.0 -3.5 97 36 3 24.1 100.82   -4 Cloudy
02:00 -1.9 -2.6 95 36 1 24.1 100.86   -2 LegendNANA
03:00 -1.9 -2.8 94 22 3 24.1 100.87   -3 LegendNANA
04:00 -1.5 -2.3 94 17 5 24.1 100.83   -3 Mostly Cloudy
05:00 -3.3 -3.9 96 21 7 24.1 100.86   -6 LegendNANA
06:00 -2.0 -2.8 95 21 5 24.1 100.88   -4 LegendNANA
07:00 -1.9 -2.8 94 20 3 24.1 100.89   -3 Cloudy
08:00 -1.1 -2.1 93 16 4 24.1 100.89   -2 LegendNANA
09:00 -0.3 -1.3 93 15 4 24.1 100.85   -2 LegendNANA
10:00 0.8 -0.6 90 14 7 24.1 100.82     Cloudy
11:00 1.7 -0.8 83 15 12 24.1 100.72     LegendNANA
12:00 2.5 -0.8 79 16 9 24.1 100.61     LegendNANA
13:00 2.8 -0.9 77 16 10 24.1 100.47     Cloudy
14:00 2.9 -0.8 77 16 10 24.1 100.36     LegendNANA
15:00 2.7 -0.7 78 15 12 24.1 100.28     LegendNANA
16:00 2.2 -0.6 82 13 15 24.1 100.15     Cloudy
17:00 1.9 -0.6 84 13 12 24.1 100.06     LegendNANA
18:00 1.8 -0.9 82 12 17 24.1 99.91     LegendNANA
19:00 2.0 -0.8 82 12 19 24.1 99.78     Rain
20:00 1.3 -0.1 90 13 16 24.1 99.70     Rain
21:00 1.0 0.2 94 11 19 24.1 99.41     Rain
22:00 1.0 0.2 95 8 16 24.1 99.31     Cloudy
23:00 0.7 0.2 96 9 18 24.1 99.14     LegendNANA

Notes on Data Quality.

Legend

  • E = Estimated
  • M = Missing
  • NA = Not Available*
  • [empty] = Indicates an unobserved value
Date modified: